"Period start","avg(HW err(1)/warn(2) (#))","avg(Visibility (m))","avg(Weather code (#))","avg(Precip intensity (mm/h))","min(HW err(1)/warn(2) (#))","max(HW err(1)/warn(2) (#))","std(HW err(1)/warn(2) (#))","med(HW err(1)/warn(2) (#))","min(Visibility (m))","max(Visibility (m))","std(Visibility (m))","med(Visibility (m))","min(Weather code (#))","max(Weather code (#))","std(Weather code (#))","med(Weather code (#))","min(Precip intensity (mm/h))","max(Precip intensity (mm/h))","std(Precip intensity (mm/h))","med(Precip intensity (mm/h))"
2014-08-04 00:00:00,0,49852,0,0.00,0,0,0,0,48517,50000,445,50000,0,0,0,0,0.00,0.00,0.00,0.00
2014-08-04 00:10:00,0,48523,0,0.00,0,0,0,0,40342,50000,3007,50000,0,0,0,0,0.00,0.00,0.00,0.00
2014-08-04 00:20:00,0,40030,0,0.00,0,0,0,0,22211,50000,9251,40600,0,0,0,0,0.00,0.00,0.00,0.00
2014-08-04 00:30:00,0,21035,0,0.00,0,0,0,0,5880,50000,18340,10882,0,0,0,0,0.00,0.00,0.00,0.00
2014-08-04 00:40:00,0,11006,2,0.00,0,0,0,0,5795,19177,4941,10106,0,10,4,0,0.00,0.00,0.00,0.00
2014-08-04 00:50:00,0,15736,8,0.00,0,0,0,0,6713,42446,10447,11914,0,10,4,10,0.00,0.00,0.00,0.00
2014-08-04 01:00:00,0,44952,0,0.00,0,0,0,0,10598,50000,11918,50000,0,0,0,0,0.00,0.00,0.00,0.00
2014-08-04 01:10:00,0,49977,0,0.00,0,0,0,0,49766,50000,70,50000,0,0,0,0,0.00,0.00,0.00,0.00
2014-08-04 01:20:00,0,49882,0,0.00,0,0,0,0,49184,50000,256,50000,0,0,0,0,0.00,0.00,0.00,0.00
2014-08-04 01:30:00,0,48054,0,0.00,0,0,0,0,45381,50000,1759,47729,0,0,0,0,0.00,0.00,0.00,0.00
2014-08-04 01:40:00,0,46290,0,0.00,0,0,0,0,39065,50000,3600,47275,0,0,0,0,0.00,0.00,0.00,0.00
2014-08-04 01:50:00,0,24016,0,0.00,0,0,0,0,3137,50000,18146,14374,0,0,0,0,0.00,0.00,0.00,0.00
2014-08-04 02:00:00,0,7240,9,0.00,0,0,0,0,4961,13713,2548,6594,0,10,3,10,0.00,0.00,0.00,0.00
2014-08-04 02:10:00,0,43879,6,0.00,0,0,0,0,17753,50000,10883,50000,0,10,5,10,0.00,0.00,0.00,0.00
2014-08-04 02:20:00,0,39176,0,0.00,0,0,0,0,19082,50000,12627,47222,0,0,0,0,0.00,0.00,0.00,0.00
2014-08-04 02:30:00,0,44936,0,0.00,0,0,0,0,38565,50000,3987,44835,0,0,0,0,0.00,0.00,0.00,0.00
2014-08-04 02:40:00,0,49036,0,0.00,0,0,0,0,44530,50000,1736,50000,0,0,0,0,0.00,0.00,0.00,0.00
2014-08-04 02:50:00,0,50000,0,0.00,0,0,0,0,50000,50000,0,50000,0,0,0,0,0.00,0.00,0.00,0.00
2014-08-04 03:00:00,0,49695,0,0.00,0,0,0,0,47265,50000,814,50000,0,0,0,0,0.00,0.00,0.00,0.00
2014-08-04 03:10:00,0,49304,0,0.00,0,0,0,0,45923,50000,1418,50000,0,0,0,0,0.00,0.00,0.00,0.00
2014-08-04 03:20:00,0,44065,0,0.00,0,0,0,0,31882,50000,6438,45148,0,0,0,0,0.00,0.00,0.00,0.00
2014-08-04 03:30:00,0,49566,0,0.00,0,0,0,0,45664,50000,1301,50000,0,0,0,0,0.00,0.00,0.00,0.00
2014-08-04 03:40:00,0,21706,0,0.00,0,0,0,0,10277,36076,9148,21032,0,0,0,0,0.00,0.00,0.00,0.00
2014-08-04 03:50:00,0,12681,0,0.00,0,0,0,0,6909,34018,7911,9527,0,0,0,0,0.00,0.00,0.00,0.00
2014-08-04 04:00:00,0,48720,0,0.00,0,0,0,0,45034,50000,1777,49914,0,0,0,0,0.00,0.00,0.00,0.00
2014-08-04 04:10:00,0,49631,0,0.00,0,0,0,0,48025,50000,603,49980,0,0,0,0,0.00,0.00,0.00,0.00
2014-08-04 04:20:00,0,49074,0,0.00,0,0,0,0,42786,50000,2183,50000,0,0,0,0,0.00,0.00,0.00,0.00
2014-08-04 04:30:00,0,48214,6,0.02,0,0,0,0,44813,50000,1757,48176,0,61,18,0,0.00,0.20,0.06,0.00
2014-08-04 04:40:00,0,47241,55,0.11,0,0,0,0,33044,50000,5671,50000,51,61,5,51,0.00,0.30,0.11,0.05
2014-08-04 04:50:00,0,43498,6,0.00,0,0,0,0,36608,50000,4673,43533,0,61,18,0,0.00,0.00,0.00,0.00
2014-08-04 05:00:00,0,45967,0,0.00,0,0,0,0,38594,50000,3703,46958,0,0,0,0,0.00,0.00,0.00,0.00
2014-08-04 05:10:00,0,48360,0,0.00,0,0,0,0,45825,50000,1660,48658,0,0,0,0,0.00,0.00,0.00,0.00
2014-08-04 05:20:00,0,48287,0,0.00,0,0,0,0,44470,50000,2076,49458,0,0,0,0,0.00,0.00,0.00,0.00
2014-08-04 05:30:00,0,44121,0,0.00,0,0,0,0,25742,50000,6642,45466,0,0,0,0,0.00,0.00,0.00,0.00
2014-08-04 05:40:00,0,49172,0,0.00,0,0,0,0,43862,50000,1882,50000,0,0,0,0,0.00,0.00,0.00,0.00
2014-08-04 05:50:00,0,49626,0,0.00,0,0,0,0,46739,50000,970,50000,0,0,0,0,0.00,0.00,0.00,0.00
2014-08-04 06:00:00,0,47027,0,0.00,0,0,0,0,40460,50000,3794,50000,0,0,0,0,0.00,0.00,0.00,0.00
2014-08-04 06:10:00,0,48732,0,0.00,0,0,0,0,44911,50000,1533,49172,0,0,0,0,0.00,0.00,0.00,0.00
2014-08-04 06:20:00,0,48916,0,0.00,0,0,0,0,44793,50000,1774,50000,0,0,0,0,0.00,0.00,0.00,0.00
2014-08-04 06:30:00,0,49316,0,0.00,0,0,0,0,43985,50000,1794,50000,0,0,0,0,0.00,0.00,0.00,0.00
2014-08-04 06:40:00,0,48951,0,0.00,0,0,0,0,45735,50000,1637,50000,0,0,0,0,0.00,0.00,0.00,0.00
2014-08-04 06:50:00,0,50000,0,0.00,0,0,0,0,50000,50000,0,50000,0,0,0,0,0.00,0.00,0.00,0.00
2014-08-04 07:00:00,0,50000,0,0.00,0,0,0,0,50000,50000,0,50000,0,0,0,0,0.00,0.00,0.00,0.00
2014-08-04 07:10:00,0,45331,55,1.21,0,0,0,0,37422,50000,4962,47492,0,61,18,61,0.00,3.80,1.16,0.90
2014-08-04 07:20:00,0,36876,61,2.85,0,0,0,0,28605,50000,6902,35437,61,61,0,61,0.50,6.50,1.60,2.35
2014-08-04 07:30:00,0,35799,61,2.07,0,0,0,0,27609,49250,6939,34612,61,61,0,61,0.50,4.75,1.46,1.53
2014-08-04 07:40:00,0,43708,61,1.48,0,0,0,0,32118,50000,6424,45854,61,61,0,61,0.85,2.30,0.46,1.43
2014-08-04 07:50:00,0,32726,58,1.19,0,0,0,0,22088,41085,5177,32450,52,61,4,61,0.60,1.75,0.36,1.20
2014-08-04 08:00:00,0,30644,61,2.16,0,0,0,0,18745,48887,7687,29966,61,61,0,61,0.50,6.90,1.68,1.78
2014-08-04 08:10:00,0,29007,61,2.48,0,0,0,0,20499,38613,5691,28313,61,61,0,61,1.60,5.70,1.18,2.10
2014-08-04 08:20:00,0,37180,61,1.09,0,0,0,0,24271,50000,7877,36259,61,61,0,61,0.45,2.00,0.51,0.93
2014-08-04 08:30:00,0,39906,53,0.97,0,0,0,0,30122,49257,6824,39508,51,61,3,52,0.30,2.15,0.59,0.75
2014-08-04 08:40:00,0,44246,52,0.79,0,0,0,0,34992,50000,5041,45976,51,52,0,52,0.40,1.75,0.47,0.62
2014-08-04 08:50:00,0,46813,51,0.38,0,0,0,0,39105,50000,4073,48812,51,51,0,51,0.05,1.00,0.30,0.25
2014-08-04 09:00:00,0,44367,57,0.96,0,0,0,0,35233,50000,4735,44782,51,61,5,61,0.15,2.25,0.57,0.95
2014-08-04 09:10:00,0,39979,59,1.90,0,0,0,0,32896,50000,5382,37780,52,61,4,61,0.65,3.35,0.75,1.92
2014-08-04 09:20:00,0,31545,61,1.88,0,0,0,0,22862,40059,5372,33444,61,61,0,61,0.80,4.05,1.10,1.55
2014-08-04 09:30:00,0,28985,56,0.39,0,0,0,0,18883,36191,5311,28785,51,61,5,56,0.05,0.95,0.24,0.38
2014-08-04 09:40:00,0,41121,55,0.59,0,0,0,0,36364,48599,3495,41674,51,61,5,52,0.35,1.10,0.24,0.53
2014-08-04 09:50:00,0,44332,52,0.95,0,0,0,0,37568,50000,4046,43968,52,52,0,52,0.50,1.90,0.39,0.80
2014-08-04 10:00:00,0,41214,52,1.03,0,0,0,0,36132,48514,3414,40942,52,52,0,52,0.55,1.25,0.22,1.10
2014-08-04 10:10:00,0,41830,52,0.55,0,0,0,0,35582,48984,4598,41601,51,52,0,52,0.30,0.95,0.23,0.43
2014-08-04 10:20:00,0,43093,51,0.40,0,0,0,0,37697,49941,3850,43426,51,52,0,51,0.15,0.65,0.18,0.38
2014-08-04 10:30:00,0,47346,51,0.12,0,0,0,0,44100,50000,2028,46964,51,51,0,51,0.05,0.25,0.06,0.10
2014-08-04 10:40:00,0,49631,50,0.03,0,0,0,0,48174,50000,666,50000,0,61,17,51,0.00,0.10,0.03,0.03
2014-08-04 10:50:00,0,49272,0,0.00,0,0,0,0,43829,50000,1844,50000,0,0,0,0,0.00,0.00,0.00,0.00
2014-08-04 11:00:00,0,49992,0,0.00,0,0,0,0,49923,50000,23,50000,0,0,0,0,0.00,0.00,0.00,0.00
2014-08-04 11:10:00,0,50000,0,0.00,0,0,0,0,50000,50000,0,50000,0,0,0,0,0.00,0.00,0.00,0.00
2014-08-04 11:20:00,0,46286,24,0.17,0,0,0,0,35317,50000,4638,47938,0,61,30,0,0.00,0.85,0.26,0.00
2014-08-04 11:30:00,0,40752,61,2.06,0,0,0,0,31858,50000,5369,40612,61,61,0,61,0.45,5.55,1.33,1.80
2014-08-04 11:40:00,0,42372,61,1.49,0,0,0,0,33667,50000,6452,41252,61,61,0,61,0.65,3.60,0.88,1.33
2014-08-04 11:50:00,0,48367,53,0.55,0,0,0,0,36741,50000,3912,50000,51,61,3,52,0.25,0.90,0.23,0.57
2014-08-04 12:00:00,0,48115,51,0.17,0,0,0,0,43439,50000,2638,50000,51,51,0,51,0.05,0.35,0.09,0.17
2014-08-04 12:10:00,0,49996,51,0.14,0,0,0,0,49964,50000,11,50000,51,51,0,51,0.00,0.45,0.16,0.08
2014-08-04 12:20:00,0,50000,52,0.09,0,0,0,0,50000,50000,0,50000,51,61,3,51,0.00,0.30,0.09,0.05
2014-08-04 12:30:00,0,50000,37,0.03,0,0,0,0,50000,50000,0,50000,0,61,30,61,0.00,0.15,0.05,0.00
2014-08-04 12:40:00,0,50000,23,0.03,0,0,0,0,50000,50000,0,50000,0,61,29,0,0.00,0.15,0.05,0.00
2014-08-04 12:50:00,0,50000,59,0.06,0,0,0,0,50000,50000,0,50000,51,61,4,61,0.00,0.20,0.06,0.05
2014-08-04 13:00:00,0,50000,57,0.09,0,0,0,0,50000,50000,0,50000,51,61,5,61,0.00,0.25,0.07,0.10
2014-08-04 13:10:00,0,50000,56,0.08,0,0,0,0,50000,50000,0,50000,51,61,5,56,0.00,0.15,0.05,0.10
2014-08-04 13:20:00,0,49234,55,0.25,0,0,0,0,43886,50000,1812,50000,51,61,5,51,0.00,1.40,0.40,0.12
2014-08-04 13:30:00,0,38316,55,0.21,0,0,0,0,28930,50000,7925,36547,51,61,5,51,0.05,0.45,0.14,0.17
2014-08-04 13:40:00,0,37826,51,0.10,0,0,0,0,25898,48157,7738,40616,51,51,0,51,0.00,0.20,0.06,0.10
2014-08-04 13:50:00,0,50000,56,0.07,0,0,0,0,50000,50000,0,50000,51,61,5,56,0.00,0.30,0.09,0.05
2014-08-04 14:00:00,0,49838,57,0.03,0,0,0,0,48382,50000,485,50000,51,61,5,61,0.00,0.10,0.04,0.00
2014-08-04 14:10:00,0,49995,18,0.00,0,0,0,0,49951,50000,15,50000,0,61,28,0,0.00,0.00,0.00,0.00
2014-08-04 14:20:00,0,48732,0,0.00,0,0,0,0,43061,50000,2361,50000,0,0,0,0,0.00,0.00,0.00,0.00
2014-08-04 14:30:00,0,48801,0,0.00,0,0,0,0,44720,50000,1804,50000,0,0,0,0,0.00,0.00,0.00,0.00
2014-08-04 14:40:00,0,50000,0,0.00,0,0,0,0,50000,50000,0,50000,0,0,0,0,0.00,0.00,0.00,0.00
2014-08-04 14:50:00,0,50000,0,0.00,0,0,0,0,50000,50000,0,50000,0,0,0,0,0.00,0.00,0.00,0.00
2014-08-04 15:00:00,0,50000,0,0.00,0,0,0,0,50000,50000,0,50000,0,0,0,0,0.00,0.00,0.00,0.00
2014-08-04 15:10:00,0,50000,0,0.00,0,0,0,0,50000,50000,0,50000,0,0,0,0,0.00,0.00,0.00,0.00
2014-08-04 15:20:00,0,50000,0,0.00,0,0,0,0,50000,50000,0,50000,0,0,0,0,0.00,0.00,0.00,0.00
2014-08-04 15:30:00,0,50000,0,0.00,0,0,0,0,50000,50000,0,50000,0,0,0,0,0.00,0.00,0.00,0.00
2014-08-04 15:40:00,0,50000,0,0.00,0,0,0,0,50000,50000,0,50000,0,0,0,0,0.00,0.00,0.00,0.00
2014-08-04 15:50:00,0,50000,0,0.00,0,0,0,0,50000,50000,0,50000,0,0,0,0,0.00,0.00,0.00,0.00
2014-08-04 16:00:00,0,50000,0,0.00,0,0,0,0,50000,50000,0,50000,0,0,0,0,0.00,0.00,0.00,0.00
2014-08-04 16:10:00,0,50000,0,0.00,0,0,0,0,50000,50000,0,50000,0,0,0,0,0.00,0.00,0.00,0.00
2014-08-04 16:20:00,0,50000,0,0.00,0,0,0,0,50000,50000,0,50000,0,0,0,0,0.00,0.00,0.00,0.00
2014-08-04 16:30:00,0,49787,0,0.00,0,0,0,0,47874,50000,638,50000,0,0,0,0,0.00,0.00,0.00,0.00
2014-08-04 16:40:00,0,50000,0,0.00,0,0,0,0,50000,50000,0,50000,0,0,0,0,0.00,0.00,0.00,0.00
2014-08-04 16:50:00,0,50000,0,0.00,0,0,0,0,50000,50000,0,50000,0,0,0,0,0.00,0.00,0.00,0.00
2014-08-04 17:00:00,0,49510,33,0.10,0,0,0,0,46603,50000,1065,50000,0,61,27,51,0.00,0.35,0.12,0.05
2014-08-04 17:10:00,0,50000,52,0.48,0,0,0,0,50000,50000,0,50000,51,61,3,51,0.05,2.40,0.69,0.17
2014-08-04 17:20:00,0,49015,61,0.95,0,0,0,0,44176,50000,1685,49560,61,61,0,61,0.30,1.70,0.46,0.95
2014-08-04 17:30:00,0,49486,56,0.29,0,0,0,0,47275,50000,815,49840,51,61,5,56,0.00,0.45,0.16,0.38
2014-08-04 17:40:00,0,50000,51,0.15,0,0,0,0,50000,50000,0,50000,51,51,0,51,0.05,0.55,0.17,0.08
2014-08-04 17:50:00,0,22441,51,0.17,0,0,0,0,6438,50000,18560,9128,51,51,0,51,0.00,0.35,0.12,0.20
2014-08-04 18:00:00,0,5763,51,0.27,0,0,0,0,4812,7023,790,5428,51,51,0,51,0.15,0.40,0.09,0.28
2014-08-04 18:10:00,0,5981,51,0.55,0,0,0,0,3707,9169,1816,5184,51,52,0,51,0.10,1.25,0.37,0.45
2014-08-04 18:20:00,0,4997,52,1.10,0,0,0,0,3806,5927,744,5434,52,52,0,52,0.50,2.20,0.55,0.82
2014-08-04 18:30:00,0,6814,52,0.54,0,0,0,0,5533,9027,1121,6575,51,52,0,52,0.30,1.25,0.27,0.40
2014-08-04 18:40:00,0,5215,52,1.30,0,0,0,0,3881,7107,1115,5304,52,52,0,52,0.40,2.85,0.88,0.90
2014-08-04 18:50:00,0,4890,52,2.10,0,0,0,0,2841,9689,2033,4188,52,52,0,52,0.05,4.90,1.49,1.92
2014-08-04 19:00:00,0,3754,55,2.88,0,0,0,0,3222,5400,659,3456,52,61,4,52,0.10,4.95,1.22,3.02
2014-08-04 19:10:00,0,6568,56,1.63,0,0,0,0,3783,11261,2491,5475,52,61,4,56,0.30,4.15,1.11,1.60
2014-08-04 19:20:00,0,6227,52,2.15,0,0,0,0,3653,11960,2823,4832,52,52,0,52,0.15,4.85,1.32,1.95
2014-08-04 19:30:00,0,6496,60,2.02,0,0,0,0,4155,10953,2736,5030,52,61,3,61,0.15,3.65,1.19,2.35
2014-08-04 19:40:00,0,6806,58,1.39,0,0,0,0,3882,14490,2887,6668,52,61,4,61,0.15,3.20,1.12,0.97
2014-08-04 19:50:00,0,9032,54,1.28,0,0,0,0,4603,19485,4551,7562,0,61,18,61,0.00,3.75,1.20,0.80
2014-08-04 20:00:00,0,5153,61,4.54,0,0,0,0,3865,7389,1129,4910,61,62,0,61,0.55,10.60,3.42,3.60
2014-08-04 20:10:00,0,7261,56,1.48,0,0,0,0,3955,14277,3222,6275,52,61,4,52,0.00,7.75,2.19,0.80
2014-08-04 20:20:00,0,4382,57,4.88,0,0,0,0,2991,6747,1217,3814,52,61,4,57,0.75,10.10,3.26,3.55
2014-08-04 20:30:00,0,8148,45,0.45,0,0,0,0,3912,15398,3640,7136,10,61,18,51,0.00,1.55,0.52,0.28
2014-08-04 20:40:00,0,14649,55,0.98,0,0,0,0,5131,33657,7843,13860,51,61,5,52,0.00,4.65,1.35,0.48
2014-08-04 20:50:00,0,16491,0,0.00,0,0,0,0,4001,30613,8357,14930,0,0,0,0,0.00,0.00,0.00,0.00
2014-08-04 21:00:00,0,16696,0,0.00,0,0,0,0,6824,38863,10357,11684,0,0,0,0,0.00,0.00,0.00,0.00
2014-08-04 21:10:00,0,9171,33,0.08,0,0,0,0,4687,23441,5056,7937,0,61,27,51,0.00,0.25,0.10,0.03
2014-08-04 21:20:00,0,23898,42,0.01,0,0,0,0,6558,50000,17035,15197,0,61,23,51,0.00,0.05,0.02,0.00
2014-08-04 21:30:00,0,10119,13,0.06,0,0,0,0,2897,30207,8803,4703,0,61,16,10,0.00,0.60,0.18,0.00
2014-08-04 21:40:00,0,39080,61,2.56,0,0,0,0,16731,50000,11503,43007,61,61,0,61,0.10,5.75,2.07,2.67
2014-08-04 21:50:00,0,33349,61,5.47,0,0,0,0,22309,46859,8551,34062,61,61,0,61,2.85,8.00,1.43,5.45
2014-08-04 22:00:00,0,28164,61,5.76,0,0,0,0,16789,40880,6663,26787,61,62,0,61,1.75,13.30,3.31,4.80
2014-08-04 22:10:00,0,25616,62,12.00,0,0,0,0,15878,36089,6812,28438,61,62,0,62,5.20,20.40,5.43,12.15
2014-08-04 22:20:00,0,30908,61,6.60,0,0,0,0,16466,50000,10604,27226,61,62,0,61,1.85,10.30,2.50,6.60
2014-08-04 22:30:00,0,39189,61,1.57,0,0,0,0,27116,50000,7431,37823,61,61,0,61,0.40,3.05,0.92,1.75
2014-08-04 22:40:00,0,15148,61,2.38,0,0,0,0,5688,32681,10041,10889,61,61,0,61,0.90,4.70,1.08,2.05
2014-08-04 22:50:00,0,9560,61,7.22,0,0,0,0,4367,16787,4600,7510,61,62,0,61,3.80,11.10,2.66,6.88
2014-08-04 23:00:00,0,6915,62,10.97,0,0,0,0,4923,8678,1281,6814,61,62,0,62,5.95,14.45,2.86,11.15
2014-08-04 23:10:00,0,4269,62,14.84,0,0,0,0,2410,6903,1367,4096,61,62,0,62,9.95,23.25,4.75,12.90
2014-08-04 23:20:00,0,11670,62,10.06,0,0,0,0,5725,15390,3396,11852,61,62,0,62,6.00,17.00,3.70,9.32
2014-08-04 23:30:00,0,10289,62,19.55,0,0,0,0,5962,13851,2681,10586,61,62,0,62,7.55,35.30,10.01,17.58
2014-08-04 23:40:00,0,6241,62,20.26,0,0,0,0,4354,7309,857,6492,62,62,0,62,12.50,29.05,5.54,20.80
2014-08-04 23:50:00,0,7631,61,9.12,0,0,0,0,6595,9811,972,7320,61,62,0,61,3.70,17.50,4.53,7.95
